Content
SEND FEEDBACK

Daily
Averages
Monthly
Summary
United States of America

MARVEL, COLORADO


Home > North America > United States > Colorado
Elevation: 6707 feet     Latitude: 37 17N     Longitude: 107 53W

WEATHER
 
SELECT A DAY
Number of Records: 185,678;   Date Range: 1/1/95 - 10/22/14
 
SHARE

PRINT THIS DATA

[ ← Previous Day ]
WEATHER ALMANAC - JANUARY 31, 2013
[ Next Day → ]
[ °C ]   °F
Weather ElementAverageHighLow
Temperature23.8 °F37.9 °F (3:53 pm)10.9 °F (3:53 am)
Dewpoint16.4 °F23 °F (3:53 pm)7 °F (5:53 am)
Humidity74.5 %92 % (4:53 am)52 % (2:53 pm)
Barometer30.39 in30.45 in (7:53 pm)30.34 in (1:53 am)
Wind Speed5.3 mph11.5 mph (10:53 am)
Weather ElementAverage
Visibility10 mi
Wind DirectionENE (70.5 °)

Weather ElementTotal
Precipitation---
Heating Degree Days40.6 (Base 65)
Averaged from 22 records on January 31, 2013
WEATHER CONDITIONS BREAKOUT
WIND DIRECTION BREAKOUT
WEATHER BY HOUR - JANUARY 31, 2013
[ °C ]   °F
Local TimeTemperatureDewpointHumidityBarometerVisibilityWind DirectionWind SpeedGust SpeedPrecipitationEventsConditions
1:53 AM14.0 °F10.0 °F84 %30.34 in10.0 miENE (70°)4.6 mphClear
2:53 AM12.9 °F10.0 °F88 %30.34 in10.0 miNE (40°)6.9 mphClear
3:53 AM10.9 °F8.1 °F88 %30.34 in10.0 miNE (50°)4.6 mphClear
4:53 AM10.9 °F9.0 °F92 %30.36 in10.0 miNE (40°)3.5 mphClear
5:53 AM10.9 °F7.0 °F84 %30.38 in10.0 miEast (90°)10.4 mphClear
6:53 AM12.9 °F9.0 °F84 %30.38 in10.0 miESE (120°)6.9 mphClear
7:53 AM14.0 °F9.0 °F80 %30.40 in10.0 miENE (60°)4.6 mphClear
8:53 AM17.1 °F12.0 °F81 %30.42 in10.0 miEast (90°)4.6 mphClear
9:53 AM24.1 °F16.0 °F71 %30.40 in10.0 miENE (60°)3.5 mphClear
10:53 AM26.1 °F16.0 °F66 %30.40 in10.0 miEast (90°)11.5 mphClear
11:53 AM32.0 °F19.0 °F59 %30.40 in10.0 miEast (80°)5.8 mphClear
12:53 PM32.0 °F21.0 °F64 %30.39 in10.0 miEast (90°)8.1 mphClear
1:53 PM34.0 °F21.9 °F61 %30.36 in10.0 miNE (50°)6.9 mphClear
2:53 PM37.0 °F21.0 °F52 %30.35 in10.0 miENE (70°)3.5 mphClear
3:53 PM37.9 °F23.0 °F55 %30.36 in10.0 miEast (100°)5.8 mphClear
4:53 PM37.0 °F23.0 °F57 %30.38 in10.0 miEast (100°)5.8 mphClear
5:53 PM33.1 °F23.0 °F66 %30.42 in10.0 miENE (70°)5.8 mphClear
6:53 PM32.0 °F23.0 °F69 %30.42 in10.0 miSSW (210°)5.8 mphClear
7:53 PM24.1 °F19.9 °F84 %30.45 in10.0 miNE (50°)4.6 mphClear
8:53 PM25.0 °F21.0 °F85 %30.43 in10.0 miCalmClear
9:53 PM25.0 °F21.0 °F85 %30.39 in10.0 miCalmClear
11:53 PM21.0 °F17.1 °F85 %30.39 in10.0 miNNE (20°)3.5 mphClear
Hourly data recorded from KDRO, located miles away from Marvel, Colorado







STORIES FROM OUR PARTNERS